Find Kosmos-2516

NORAD ID: 41554 Int'l Des: 2016-032 Owner: VVKOV/IACG Country: RU Constellation: GLONASS operational
MEOCIRCULAR

当前视图

正在加载3D地球...

About Kosmos-2516

Kosmos-2516 (NORAD 41554) is a GLONASS constellation satellite launched May 29, 2016 by VVKOV/IACG of RU. It operates in MEO, CIRCULAR orbit with a mass of 1450.00 kg.

关于 Kosmos-2516

正在加载描述...

即将过境

Passes for default location (London). Set your location on the main map for personalized predictions.

高度历史

Loading altitude history...

两行轨道根数

1 41554U 16032A 26170.25011276 .00000057 00000-0 00000-0 0 9993
2 41554 63.8442 190.9890 0018130 214.9686 144.9552 2.13106639 78278
Epoch: Jun 19, 2026 • Age: 7 hours

当前状态

高度 19098.0 km
速度 3.96 km/s
星下点 -40.28°S, 68.33°W
发射日期 May 29, 2016
运行时间 10 years
类型 other

技术详情

分类 Payload
质量 1450.00 kg
干质量 1200.00 kg
总质量 1450.00 kg
长度 4.00 m
直径 1.50 m
跨度 7.80 m
形状 Cyl + Ant + 2 Pan
制造商 RESH
平台类型 Uragan
阶段状态 In Orbit
所有者/国家 VVKOV/IACG/RU

Most Searched